Wind_Speed
7 7 7 7 7 7 8 7 7 7 7 7 8 8 8 8 8 9 9 9 9 9 9 9 9 9 9 10 11 10 12 12 8 6 6 4 2 5 8 6 4 10 13 9 8 9 7 4 4 5 5 3 3 1 2 2 2 3 3 2 1 3 4 6 7 7 4 3 5 3 2 2 5 4 2 0 0 3 4 6 5 5 8 9 9 7 5 5
7 7 7 7 7 8 8 8 8 8 8 8 8 8 8 9 9 9 10 10 10 10 10 10 10 10 10 10 10 10 13 12 8 7 6 2 0 3 6 7 6 9 13 11 10 11 7 2 4 5 4 2 2 2 1 1 2 3 3 2 3 5 5 6 7 5 4 4 5 5 2 3 5 3 0 2 5 4 6 9 3 6 12 11 12 12 9 8
7 7 8 8 8 8 8 8 9 9 9 9 9 9 9 9 10 10 10 11 11 11 11 11 11 11 10 10 9 10 12 10 7 5 6 3 2 2 3 6 7 9 13 10 9 10 5 5 9 6 4 1 1 2 1 0 1 1 3 2 6 7 5 5 6 8 7 4 3 7 2 2 5 3 1 3 5 5 7 11 6 8 12 11 10 11 12 12
8 8 8 8 8 8 8 8 8 8 9 9 9 10 10 11 11 11 11 12 12 12 13 13 12 12 11 10 9 11 11 7 4 6 8 2 3 2 1 6 9 11 13 9 7 8 5 8 9 5 3 1 3 2 1 2 2 2 4 5 6 4 3 6 9 10 7 3 4 5 4 5 5 3 3 3 3 7 10 11 11 14 14 11 8 9 12 12
8 8 8 9 9 9 9 8 8 8 8 9 9 9 10 11 11 11 12 12 13 13 14 14 13 12 11 10 9 9 8 5 2 7 6 2 5 4 1 7 10 11 13 10 8 8 7 8 6 5 3 1 2 2 2 4 3 2 4 6 6 4 4 7 8 8 5 3 4 3 5 6 2 1 5 7 5 9 10 9 12 15 12 11 8 7 9 9
8 8 8 9 9 10 10 9 9 9 10 10 10 10 10 11 11 12 12 12 13 13 14 14 14 13 11 10 7 5 3 1 5 6 5 7 7 5 2 7 10 13 13 11 10 10 7 6 4 2 2 1 3 3 4 2 2 2 4 5 6 6 6 5 4 5 5 4 5 4 4 3 1 6 6 10 12 15 14 12 13 12 10 9 6 6 8 9
8 7 8 8 9 10 10 10 10 10 11 11 12 12 12 12 13 13 13 13 14 13 14 14 14 13 12 9 4 2 4 5 14 12 11 11 9 5 4 8 11 14 14 13 12 9 5 5 3 4 4 1 4 5 4 1 1 3 4 5 6 6 9 7 3 4 5 6 8 2 5 7 8 7 2 9 14 17 18 16 13 10 8 7 6 7 9 11
7 7 7 8 8 9 10 10 11 11 12 12 13 13 13 14 14 14 14 15 15 14 14 14 14 13 12 6 1 2 1 10 19 17 16 13 10 6 6 9 12 14 15 14 13 9 6 6 6 4 2 3 4 4 3 2 0 5 7 5 3 3 8 8 4 4 5 8 6 1 7 16 13 4 7 13 14 16 18 17 11 8 8 7 9 11 10 10
8 9 9 9 9 9 10 11 11 12 12 13 13 14 14 14 14 15 15 16 16 16 15 15 14 11 10 4 2 2 5 11 14 12 13 12 10 8 9 10 13 16 14 13 13 11 7 6 6 5 4 4 5 4 3 3 4 7 8 5 3 5 7 6 7 7 6 6 4 3 11 16 9 1 12 19 15 16 17 16 11 7 10 10 11 13 11 11
9 10 10 10 9 10 11 11 12 13 13 14 14 15 15 14 15 16 16 17 17 17 15 14 13 9 6 2 2 5 7 8 8 7 8 9 10 11 12 11 14 17 14 11 13 14 8 8 7 5 4 3 4 4 3 5 4 4 4 5 7 8 8 4 6 7 4 6 6 8 13 15 5 3 11 15 8 10 10 12 10 5 11 12 10 12 10 10
9 10 10 10 10 11 11 12 13 14 14 15 15 15 15 15 16 17 18 17 17 17 15 14 12 8 4 2 3 7 5 4 6 7 7 9 11 11 12 12 13 17 15 10 14 17 11 9 10 7 2 3 3 2 3 5 1 2 1 6 9 7 10 6 6 8 4 5 7 11 10 11 3 2 15 18 4 5 7 10 11 6 11 11 10 11 7 9
8 9 9 10 10 11 12 13 14 14 15 15 15 15 16 17 17 18 18 17 17 16 15 13 9 5 2 1 7 12 10 8 7 7 8 10 10 10 11 11 12 15 14 10 13 19 13 9 13 6 3 4 2 1 4 3 3 1 3 4 9 7 11 10 7 6 6 4 5 9 4 7 5 9 20 17 3 5 7 10 12 10 11 10 9 9 7 10
8 8 9 10 11 12 13 14 14 15 16 16 15 16 18 19 18 18 17 16 16 15 13 11 8 3 1 2 6 10 13 13 12 12 13 13 11 9 10 10 11 12 13 10 8 13 14 11 11 6 2 5 2 2 1 3 2 2 2 0 6 7 9 8 1 1 4 5 6 7 3 5 9 15 20 11 4 6 6 9 11 11 10 8 8 7 8 10
7 8 9 10 11 12 13 14 15 16 16 16 16 18 20 19 17 16 15 14 12 11 10 6 4 4 3 6 8 7 10 12 12 14 15 15 11 7 6 7 9 11 11 9 4 6 13 12 8 3 0 3 1 2 2 5 2 3 2 1 2 2 7 7 1 3 2 4 6 4 5 7 9 15 18 7 4 5 6 9 11 11 10 8 7 6 9 9
7 8 9 10 11 13 14 15 16 17 17 17 18 20 19 16 13 13 12 10 7 4 4 3 5 6 2 7 10 7 8 9 9 12 13 15 12 6 5 7 9 9 8 7 3 4 10 10 6 3 2 1 0 1 3 4 3 1 2 3 1 3 6 10 5 6 7 4 3 5 5 7 9 14 16 6 4 3 7 9 10 11 11 10 8 7 9 10
7 8 9 10 11 13 14 16 18 19 19 18 20 20 15 11 10 11 9 6 3 3 4 5 7 6 1 4 6 6 6 5 7 9 9 12 12 7 7 9 7 7 6 5 6 7 9 7 3 2 1 1 2 2 2 4 4 2 2 5 4 5 4 7 9 7 8 3 1 7 6 6 7 10 12 8 3 3 7 10 12 14 13 12 11 9 10 11
8 8 9 10 11 13 14 17 19 20 20 19 21 18 10 7 9 8 7 7 7 8 6 5 7 4 2 4 4 6 3 3 5 5 6 8 9 10 10 7 5 8 8 6 7 7 4 3 1 0 2 1 2 3 1 3 4 3 2 5 5 5 5 4 8 7 1 6 5 6 7 9 11 10 10 11 11 9 11 14 16 15 14 13 12 12 12 12
8 9 10 10 11 12 14 16 18 21 20 20 22 15 5 5 6 8 10 9 8 7 7 5 5 2 4 4 4 5 2 2 3 2 4 5 8 12 9 6 6 9 8 4 3 3 2 2 2 1 1 1 2 4 3 7 7 6 5 4 4 4 5 6 7 5 4 3 4 3 8 14 15 13 13 14 11 11 16 17 16 16 15 14 13 13 13 11
8 9 9 10 11 12 13 15 18 19 19 20 20 10 3 6 3 5 6 5 4 2 0 1 3 2 3 5 6 6 3 1 2 2 5 8 11 11 7 7 7 7 5 1 1 2 1 3 3 2 3 6 7 8 11 12 9 6 4 4 5 5 6 8 9 7 5 7 6 8 16 16 13 14 13 14 10 10 15 17 16 15 15 15 13 12 11 12
7 9 9 10 11 12 13 14 16 18 18 21 18 6 3 6 3 1 5 4 2 5 5 5 6 4 6 8 6 5 4 3 2 3 7 10 13 10 5 4 5 4 3 4 3 2 3 3 3 5 9 12 12 10 12 10 4 1 2 4 6 7 8 9 10 8 1 4 8 11 18 17 13 14 13 13 13 11 15 18 17 16 16 16 14 13 13 14
7 9 10 10 11 12 12 13 16 16 15 17 15 6 2 1 2 3 5 6 9 11 9 12 12 10 14 12 4 0 2 3 2 2 7 9 11 8 1 2 4 1 2 4 3 1 2 5 7 11 14 10 5 4 6 6 5 5 5 7 7 6 11 11 11 11 2 2 6 7 15 17 13 15 14 13 14 17 18 16 16 18 18 16 15 17 15 10
7 9 10 11 11 12 13 13 15 15 12 13 12 7 4 2 2 4 2 3 10 10 11 14 11 9 16 15 7 1 2 3 4 1 7 7 4 4 1 4 5 3 1 3 2 0 2 5 9 14 10 1 3 4 3 3 5 6 4 5 6 4 9 10 8 9 2 2 5 7 14 15 12 17 18 17 17 16 15 12 13 17 17 18 17 14 10 8
10 10 10 10 10 12 13 13 14 13 10 11 9 6 2 0 3 4 2 1 7 7 8 8 5 5 9 10 7 4 2 5 5 4 8 8 2 3 4 4 4 2 2 5 5 5 5 5 11 13 6 2 4 2 4 2 4 6 5 4 7 4 5 7 5 5 3 3 6 9 14 13 11 15 16 15 12 11 14 13 13 16 17 20 16 8 7 9
13 12 11 10 10 10 11 13 13 9 9 7 7 4 2 2 2 4 2 1 4 7 5 4 4 4 4 3 4 7 4 4 3 3 8 10 4 2 4 4 4 2 4 9 10 10 7 4 5 5 5 8 8 3 2 5 6 7 6 5 9 10 10 10 6 6 6 5 4 7 12 9 5 7 6 5 4 6 11 11 14 17 14 12 11 7 5 6
15 14 13 11 11 10 10 11 8 5 7 4 3 6 4 2 1 4 1 2 3 6 3 2 2 2 3 1 4 6 3 3 3 3 5 8 5 3 2 2 3 3 7 8 8 9 8 4 3 3 4 6 6 6 6 7 8 6 5 11 15 14 11 11 8 7 5 4 4 5 7 7 1 1 4 3 3 5 5 8 17 15 2 2 7 6 3 3
16 15 14 13 11 10 8 6 3 4 7 2 2 6 4 2 0 4 2 4 2 5 2 1 1 1 2 2 1 3 3 1 3 1 2 4 3 3 2 1 1 3 6 5 3 4 4 4 1 3 4 6 5 6 7 8 6 7 5 11 14 10 8 10 7 4 1 4 3 3 2 7 4 2 6 4 3 8 8 11 17 9 4 3 6 5 5 4
15 15 13 12 11 9 5 1 2 4 4 2 2 5 4 3 1 3 0 3 3 2 1 1 1 2 2 1 0 2 2 2 2 1 1 2 1 2 2 3 1 2 3 2 2 2 3 1 3 4 5 5 5 6 7 9 5 6 4 6 8 7 7 6 3 3 3 3 3 1 3 6 9 4 4 3 3 8 12 13 14 9 6 7 5 4 4 2
10 10 10 10 9 8 6 4 3 2 3 4 4 4 4 3 1 0 2 2 3 1 2 1 1 2 0 0 2 3 0 2 2 1 2 1 1 2 1 6 6 5 4 4 4 3 3 3 4 6 5 3 6 6 7 11 6 6 2 4 5 5 4 4 4 4 2 3 4 3 4 3 10 5 1 2 3 7 12 12 12 9 8 9 4 4 2 1
5 6 6 6 5 7 8 7 5 4 5 5 4 5 4 2 1 4 3 2 2 2 1 0 2 0 2 2 3 3 1 2 2 2 4 2 1 3 1 6 6 4 4 4 6 5 1 3 6 8 5 6 7 5 7 11 6 4 5 5 4 3 3 3 2 2 2 4 4 5 5 3 9 5 3 3 1 6 9 8 9 8 7 7 4 3 1 3
4 3 3 2 3 5 7 8 9 8 6 5 5 5 4 1 2 3 2 3 1 1 1 1 1 1 3 2 3 2 0 1 0 2 3 1 2 4 1 3 5 3 2 2 5 6 1 1 2 5 4 5 4 2 3 7 5 3 5 4 5 4 4 3 1 3 2 6 5 9 10 5 6 4 4 3 3 5 5 5 7 7 4 4 4 2 2 4
4 3 2 2 3 4 4 4 7 8 7 5 4 3 2 2 4 2 6 2 1 2 0 1 1 2 3 2 2 1 1 1 0 2 1 1 2 4 1 1 2 2 2 4 5 3 1 1 2 3 2 3 5 3 2 1 3 3 3 3 3 3 4 4 4 3 1 7 5 8 10 7 7 5 1 4 6 5 5 4 6 8 7 7 5 2 4 2
5 5 3 2 4 6 5 2 2 4 7 5 3 0 3 2 1 5 4 2 1 2 1 1 2 2 3 2 1 2 1 1 1 3 3 2 2 2 3 4 3 1 4 2 3 4 1 5 4 3 2 5 4 1 2 3 3 3 3 1 2 4 3 3 2 1 3 7 4 2 3 4 9 6 3 9 13 9 6 6 7 7 8 10 8 3 4 3
7 7 5 5 6 8 9 7 3 4 7 7 1 3 5 1 5 3 1 2 2 1 1 1 0 2 3 1 2 3 1 2 4 3 2 3 2 3 4 5 5 2 4 2 1 4 4 4 2 1 3 4 7 5 3 1 3 4 4 4 2 1 2 3 2 2 4 5 4 2 1 4 8 5 6 12 13 8 3 5 8 7 8 11 9 5 4 4
9 9 8 7 8 9 10 10 7 7 10 7 2 4 3 6 5 3 3 6 2 2 1 3 2 1 2 2 4 3 1 3 4 4 2 3 1 3 4 5 5 4 2 2 2 2 4 7 4 6 3 6 9 8 5 5 5 5 5 5 4 3 3 4 3 4 6 4 3 2 2 3 3 3 5 8 7 6 4 3 4 5 6 8 6 5 6 6
11 10 10 10 11 11 12 11 9 10 11 5 2 2 5 7 3 1 4 5 2 3 3 0 2 3 2 3 4 3 4 4 2 4 3 3 3 4 3 5 6 5 3 2 2 2 4 8 6 2 1 8 9 5 4 6 2 3 4 4 2 4 4 3 4 5 3 3 3 2 3 5 4 7 9 6 5 6 5 4 4 5 5 5 5 6 7 8
12 11 11 12 14 15 15 13 11 13 11 4 2 5 7 6 3 3 4 2 2 2 2 3 0 2 5 2 2 2 1 2 1 1 2 3 3 5 4 4 6 9 7 5 3 2 3 6 3 2 1 5 5 2 3 2 2 2 3 3 3 3 5 2 5 2 1 3 6 4 6 6 5 10 8 3 5 5 6 6 4 4 6 6 6 7 8 9
12 9 8 11 14 16 16 16 16 16 8 3 5 7 5 4 4 4 3 1 1 3 2 2 2 2 4 3 2 2 0 2 1 1 2 2 2 4 5 4 4 11 9 3 2 3 4 6 3 3 3 3 1 1 2 2 2 5 3 4 1 2 3 1 2 0 1 6 6 5 10 10 6 8 4 6 9 8 7 7 5 4 6 7 7 8 9 10
8 5 6 10 14 15 16 18 20 14 5 2 8 9 4 3 3 3 3 2 1 1 2 3 4 2 2 3 3 1 2 2 0 1 2 3 4 4 5 3 1 4 5 2 1 3 2 5 4 1 4 2 2 2 2 3 1 4 3 2 1 1 2 1 2 1 4 7 4 5 11 9 6 9 7 7 10 7 5 6 7 9 10 10 10 11 13 13
4 2 3 4 8 12 18 22 19 9 2 4 8 8 4 4 4 3 3 1 0 1 1 5 4 3 3 3 3 2 2 3 1 1 2 2 4 2 3 3 1 2 4 1 2 2 2 3 4 0 2 0 3 1 2 2 0 2 1 2 1 2 3 2 2 1 3 7 6 6 8 6 5 7 7 5 5 5 6 7 10 12 12 11 11 11 13 12
2 1 1 3 2 11 21 21 13 5 5 6 7 6 3 3 4 3 2 2 2 1 2 4 4 4 5 3 3 3 1 3 3 2 3 2 4 4 2 1 1 2 4 3 1 1 2 2 3 2 1 1 1 3 5 5 3 1 1 2 2 1 1 2 1 1 2 5 5 5 5 5 3 5 7 5 5 7 9 9 10 11 11 11 10 10 9 9
1 0 1 4 2 16 21 14 6 4 5 6 7 7 5 4 4 3 2 1 2 2 1 3 4 4 3 3 4 2 1 2 3 3 4 3 4 4 3 4 1 0 3 4 1 1 0 2 3 3 4 4 6 6 7 8 6 5 4 5 5 4 2 5 5 4 3 4 4 6 8 6 4 6 7 5 9 9 9 9 9 9 9 9 9 9 8 8
0 2 0 4 8 21 16 6 4 3 4 6 5 4 3 3 4 4 3 1 2 2 1 1 3 3 3 4 5 3 2 3 4 4 5 5 6 6 2 4 1 2 2 0 2 2 2 2 3 6 7 8 11 6 4 7 6 3 3 4 5 5 5 8 10 5 4 5 6 7 9 6 3 4 3 10 10 7 8 9 8 7 7 7 7 8 8 8
1 1 2 2 13 22 10 3 5 3 4 3 1 3 3 2 3 3 2 0 1 2 2 1 3 4 5 6 5 4 4 4 6 8 7 5 5 4 5 6 2 2 1 1 2 1 2 2 2 6 5 6 9 5 3 1 2 2 3 4 5 5 5 7 7 3 3 5 5 6 7 3 3 3 6 11 8 7 9 9 8 7 6 7 7 7 7 7
1 2 3 2 8 13 7 4 5 5 6 4 3 6 6 3 4 4 2 2 2 2 2 2 3 4 4 3 3 4 5 4 5 7 5 3 3 1 6 7 4 3 2 1 1 1 1 1 2 3 4 4 6 5 3 4 2 0 3 3 2 3 5 6 3 1 2 5 7 7 5 2 2 4 5 9 7 8 8 7 7 6 6 7 8 8 7 7
2 1 3 4 2 3 3 2 2 4 7 7 8 9 7 5 5 5 4 3 3 3 2 2 1 1 1 1 1 2 3 3 3 3 0 1 3 2 5 8 4 3 1 2 2 1 0 2 2 2 5 6 6 6 2 1 2 2 3 4 4 3 5 6 4 4 4 5 6 6 5 4 6 6 7 9 7 7 7 6 6 5 5 6 6 7 7 8
1 0 2 3 3 1 1 0 1 2 4 5 7 8 9 9 5 2 5 5 5 5 5 4 2 2 2 2 2 4 5 5 4 2 1 2 2 1 1 3 4 2 2 3 4 2 1 2 4 6 7 7 7 7 2 1 3 4 4 6 6 7 6 5 5 5 7 7 6 7 9 11 11 9 6 7 7 6 6 5 5 4 4 5 4 4 4 4
1 1 1 0 1 1 1 0 0 1 1 1 3 3 7 9 5 2 4 3 3 3 3 3 3 4 4 4 4 5 5 4 3 3 3 3 2 3 2 2 5 4 2 2 4 3 1 2 5 8 9 8 10 10 5 3 4 6 8 9 10 10 9 9 10 9 9 9 8 8 10 12 13 10 4 4 6 6 6 5 4 3 3 3 4 5 5 5
0 0 1 0 0 1 2 1 0 1 1 0 1 2 3 3 3 2 2 0 1 1 1 1 1 1 2 1 2 2 2 2 3 2 2 2 2 3 4 3 3 4 4 3 3 3 2 4 5 5 7 7 8 9 6 5 6 6 8 11 12 13 13 13 13 12 10 10 10 11 15 17 13 6 0 2 3 3 4 4 3 2 3 3 3 4 5 6
1 0 2 2 1 0 1 1 3 2 1 1 1 4 3 3 4 3 1 1 2 1 1 2 1 2 2 1 1 2 2 2 4 3 1 1 1 1 2 2 1 2 5 3 3 1 2 3 3 3 5 6 8 10 10 8 9 10 10 11 13 15 16 15 15 15 14 16 16 17 20 19 8 1 2 1 1 2 3 4 4 4 3 3 3 3 4 4
1 0 1 2 1 0 1 1 2 2 2 2 3 4 2 3 7 4 1 1 4 3 2 2 0 2 2 2 1 3 2 1 3 4 1 1 1 1 0 1 1 2 3 2 2 2 1 3 4 4 5 8 11 13 13 12 12 13 12 12 14 16 17 17 16 16 15 17 16 16 17 11 0 3 2 1 1 3 4 4 5 4 4 4 5 4 4 4
1 1 1 2 0 1 1 1 0 1 2 3 4 3 1 2 4 2 2 2 2 0 1 2 2 2 2 1 0 2 0 3 3 3 1 0 2 1 1 1 1 3 4 0 1 3 1 2 4 4 5 9 11 10 10 9 9 11 13 15 19 18 16 15 14 13 11 10 10 11 10 4 2 2 2 2 3 4 4 5 5 4 4 4 5 6 5 5
2 1 1 3 0 1 2 1 1 2 3 2 2 2 1 0 2 1 0 2 4 5 5 4 3 3 0 2 2 1 2 2 3 3 2 3 5 4 4 5 5 4 3 1 1 2 2 2 3 3 5 9 8 4 3 4 6 10 11 13 16 15 13 13 11 9 6 3 4 7 4 1 2 2 2 3 3 3 4 5 5 5 5 5 6 6 6 6
Wind_Direction
20 18 12 10 6 4 4 1 359 354 354 351 350 350 345 345 341 340 339 336 337 335 336 335 337 343 345 350 349 345 335 321 311 286 254 251 267 243 239 249 216 197 199 194 183 165 137 120 143 131 121 87 14 343 14 11 83 66 89 122 223 203 203 189 190 199 193 254 265 274 160 159 292 290 270 322 276 275 284 271 256 272 256 238 251 262 264 246
15 12 6 7 2 359 356 354 352 347 346 343 343 341 338 338 335 336 334 332 332 330 332 331 333 336 340 346 345 345 334 320 308 277 238 192 327 282 248 233 208 193 192 191 193 173 145 165 162 112 80 67 355 358 7 340 94 94 121 159 227 206 213 197 187 195 206 236 258 273 235 195 252 257 39 252 275 312 296 273 235 256 264 256 252 248 244 221
10 6 4 2 358 356 353 350 348 343 342 339 337 335 332 331 330 330 328 328 326 326 326 326 329 332 337 341 347 347 331 320 308 250 186 131 18 317 258 215 199 189 192 197 199 187 172 176 159 114 60 80 332 20 37 309 169 157 137 201 239 218 231 228 209 211 219 234 281 281 279 225 238 220 175 224 275 293 262 264 249 245 257 255 241 229 226 212
8 4 1 355 352 351 348 348 344 341 338 335 334 332 330 327 326 326 326 325 322 323 321 321 324 327 333 337 346 344 334 334 298 191 159 102 19 5 251 199 191 187 193 192 185 195 184 149 139 92 79 133 326 10 172 227 200 176 156 205 231 199 239 236 217 222 224 218 242 272 318 292 254 187 186 177 281 281 250 247 241 245 252 251 241 214 210 204
7 3 359 352 349 346 344 344 339 339 335 333 331 327 328 324 323 322 322 322 320 320 317 315 316 318 325 329 337 342 357 9 271 183 169 327 351 341 229 187 189 187 189 182 164 167 154 136 112 57 80 153 325 37 237 224 137 176 209 226 219 156 242 239 208 221 202 172 228 262 294 281 276 209 199 173 217 254 253 246 231 237 243 247 243 203 196 201
2 360 358 350 348 344 341 340 337 338 335 335 333 330 330 325 323 320 318 318 316 315 313 310 310 311 314 321 325 337 43 9 260 218 236 296 315 306 202 185 187 186 188 176 152 145 133 113 100 99 92 56 197 195 245 236 125 236 250 251 234 189 231 243 184 203 167 158 219 220 272 290 309 275 214 175 217 243 253 255 244 242 237 240 236 180 188 205
355 356 355 347 345 341 338 339 338 339 340 342 339 336 332 328 326 320 318 316 312 313 312 309 310 311 312 320 312 332 103 237 266 264 270 283 285 274 202 189 184 187 188 171 152 143 120 109 153 157 108 355 217 212 234 226 96 249 260 256 243 211 228 245 206 196 181 216 235 213 323 287 251 270 254 188 220 243 254 256 254 257 245 234 228 205 208 210
348 348 348 344 341 337 337 340 343 345 347 347 342 338 333 328 324 318 317 313 310 311 311 311 314 319 318 322 296 336 132 247 272 274 272 272 264 251 205 187 184 191 190 185 173 157 136 142 179 155 132 239 198 186 190 148 114 222 234 242 244 228 239 258 268 240 239 248 245 256 282 267 256 265 285 250 231 240 252 259 260 261 258 241 241 239 228 221
349 348 349 347 341 340 342 345 350 351 351 349 344 339 333 328 322 318 314 310 308 305 308 310 313 324 321 332 94 316 254 257 276 274 266 260 251 232 205 191 189 193 188 197 187 165 162 175 198 187 190 208 171 184 173 179 237 216 220 251 273 274 269 276 273 243 240 248 188 190 256 265 275 306 271 260 237 239 249 264 267 258 261 248 246 248 235 230
352 352 351 349 349 350 351 352 353 353 353 350 345 340 335 329 322 316 310 308 306 303 306 305 307 322 317 0 84 277 264 260 262 251 250 243 237 217 206 202 196 197 188 189 185 174 181 193 184 163 163 144 168 191 151 179 212 192 204 274 266 274 286 261 261 255 246 262 189 192 252 264 294 57 267 260 220 229 244 264 265 238 254 249 242 250 240 234
354 351 350 354 358 357 358 357 355 356 354 351 347 343 336 330 320 312 307 305 302 300 301 298 303 313 297 135 195 256 264 254 244 236 233 231 235 221 214 214 205 203 190 179 193 194 197 186 149 115 159 174 167 179 216 208 146 99 112 302 278 292 295 246 247 264 233 266 201 186 249 276 312 129 250 257 192 184 230 262 268 237 249 252 243 249 243 239
355 352 354 0 2 2 2 359 359 358 354 353 349 344 337 327 316 308 304 300 296 293 292 291 294 295 286 200 230 249 257 255 252 250 246 240 237 225 219 219 216 215 203 191 207 208 207 178 145 137 220 162 135 214 242 225 82 29 64 315 290 327 304 262 247 248 187 229 179 157 248 285 251 223 247 259 181 181 234 260 271 258 252 253 247 252 246 244
355 355 359 4 4 4 3 1 1 358 355 355 350 344 336 324 316 309 305 299 293 288 283 282 278 250 204 270 248 255 263 263 262 258 255 249 241 232 225 219 214 218 217 215 221 213 208 192 162 170 194 140 200 225 144 53 66 279 52 326 293 335 303 274 252 96 168 205 163 146 256 257 239 244 255 264 154 182 234 250 262 266 263 259 249 250 252 249
356 360 4 6 5 4 2 2 1 358 357 355 350 344 334 326 320 316 315 308 298 286 274 267 242 178 159 260 266 280 277 272 268 258 253 247 237 226 221 211 204 205 215 221 235 217 204 196 159 133 163 148 239 284 15 8 14 287 304 203 305 296 279 300 36 121 222 228 152 157 258 248 251 260 262 269 127 179 238 255 259 264 266 267 257 250 258 255
354 0 4 5 4 2 1 1 359 358 358 356 352 344 334 332 331 332 333 322 311 278 232 177 164 144 110 277 271 281 279 276 273 263 255 243 226 212 196 187 190 192 196 202 199 184 180 171 138 129 263 283 74 299 313 344 9 9 284 270 275 207 266 308 295 190 224 271 117 166 245 259 257 262 265 293 69 168 243 262 263 265 268 270 268 256 260 264
350 357 1 3 2 1 0 359 358 357 357 357 352 343 338 342 344 346 349 349 17 115 133 144 156 138 85 278 273 282 279 275 271 267 253 234 223 206 164 155 157 159 161 161 145 142 142 131 111 148 175 291 170 167 338 346 330 334 230 248 254 238 274 315 299 247 213 205 160 214 236 272 260 260 275 303 329 238 246 267 268 269 271 271 272 266 260 265
347 351 355 359 360 0 359 357 358 356 357 358 352 344 344 355 359 14 34 61 91 103 98 132 150 125 270 259 277 283 286 273 266 266 244 226 213 188 154 129 119 125 119 110 125 123 101 90 53 6 61 5 135 116 6 296 272 272 222 239 246 246 268 299 294 298 195 164 208 241 243 256 262 273 290 296 294 286 275 274 271 271 273 270 269 266 261 260
340 343 348 353 355 357 357 356 357 356 356 359 353 344 355 11 20 66 71 78 96 94 82 105 122 88 275 259 266 271 296 278 255 249 217 188 178 179 160 127 123 118 98 68 109 117 14 34 77 46 3 315 134 127 209 233 236 242 234 250 271 255 253 259 264 300 337 234 220 287 265 255 264 274 279 279 281 283 278 277 277 277 274 269 265 263 263 262
330 336 340 344 348 351 353 353 356 356 354 359 356 345 19 15 19 98 63 49 79 86 2 179 147 145 263 273 275 276 290 246 234 196 161 148 157 160 132 112 112 109 107 82 242 176 117 61 73 115 212 232 212 185 210 230 237 239 227 238 270 279 253 243 253 266 304 289 269 270 268 266 270 270 272 276 270 263 272 278 279 278 276 272 268 264 263 261
328 334 335 337 339 342 348 350 353 356 356 1 2 360 38 14 1 351 336 336 241 238 256 239 216 223 269 277 279 265 253 238 239 177 153 152 150 135 99 84 80 80 138 158 193 191 133 159 167 186 214 224 221 211 222 248 300 312 250 262 262 272 271 263 271 270 228 288 265 255 271 278 276 273 271 275 277 267 263 268 273 276 277 275 274 270 264 259
332 333 332 332 331 335 342 348 351 356 359 5 15 40 100 56 15 318 312 303 264 247 244 238 228 234 251 259 280 13 265 270 272 133 151 156 145 140 129 94 112 165 216 152 154 65 129 191 206 216 222 224 225 221 233 261 298 273 256 278 271 259 272 271 274 278 253 249 258 251 273 277 275 277 272 264 265 261 258 261 270 274 275 277 277 271 269 270
315 318 320 319 325 332 335 343 348 350 358 14 38 80 140 174 216 247 242 302 282 252 233 242 246 252 254 265 290 354 7 293 293 347 154 144 130 186 205 97 144 200 195 133 143 268 215 219 227 231 232 289 29 71 108 223 244 252 246 277 276 260 279 274 263 282 303 219 271 280 278 277 270 267 261 253 251 257 265 262 261 268 272 273 271 273 292 309
291 296 302 302 311 320 324 336 340 343 360 23 53 96 136 251 222 218 165 274 292 272 237 239 248 256 265 283 272 202 210 246 271 281 175 147 97 204 145 123 163 157 147 185 204 216 230 236 233 235 227 233 274 78 82 292 251 226 218 261 272 255 273 269 258 305 324 242 274 293 286 281 265 258 257 257 255 258 267 262 254 256 257 263 272 297 320 313
280 287 291 289 296 301 311 327 327 337 3 28 53 56 33 6 195 176 155 247 289 288 260 206 205 224 248 286 202 167 180 213 231 268 182 156 141 168 152 155 148 135 203 207 215 228 239 232 212 215 189 199 235 234 202 266 263 227 206 227 258 253 248 252 272 329 323 282 295 312 298 289 258 250 258 281 290 257 257 266 262 254 249 265 290 308 298 299
279 283 286 286 289 289 301 317 315 329 349 10 41 6 13 32 172 162 132 4 306 291 287 172 188 226 212 166 162 170 163 187 224 262 191 167 153 142 170 170 138 198 218 209 224 246 255 236 167 148 170 177 204 233 218 221 251 263 213 212 238 253 255 260 288 341 343 308 340 3 321 301 312 216 270 313 322 267 252 252 253 256 283 356 297 302 353 18
277 278 281 282 280 280 293 310 297 322 335 334 2 347 355 16 291 179 129 36 312 285 322 172 198 179 193 124 148 172 118 200 270 276 180 185 164 131 149 191 82 216 207 191 218 248 259 264 219 159 141 131 165 239 224 196 235 283 235 211 228 246 256 264 284 327 298 260 297 43 350 286 288 223 258 267 259 269 262 248 255 272 10 345 287 323 31 33
276 278 279 276 270 267 268 244 265 309 323 298 324 332 335 4 354 207 33 16 303 262 93 285 287 123 195 208 127 141 132 288 307 82 146 176 192 115 158 219 218 227 184 145 292 247 209 283 40 99 111 126 173 243 220 173 190 267 242 192 202 224 239 238 238 233 239 277 298 158 149 277 284 252 253 234 187 257 262 258 272 291 311 292 291 17 56 97
275 279 276 271 264 254 240 222 236 260 259 271 303 311 322 339 282 124 46 322 293 108 107 272 156 118 234 5 64 97 145 336 68 330 336 35 237 80 205 225 189 202 182 144 245 251 166 189 176 137 113 160 202 225 186 157 186 253 196 135 160 195 209 171 179 216 260 340 302 222 149 253 278 267 26 60 162 243 260 264 277 289 300 297 312 53 70 207
274 280 280 271 253 236 231 228 223 224 249 267 287 302 320 304 282 65 82 254 304 80 86 77 143 94 355 23 20 53 35 11 102 285 345 34 290 63 187 221 163 195 226 167 231 254 185 214 187 149 144 210 217 217 174 163 196 227 122 91 74 78 76 101 155 150 59 311 255 201 172 234 280 274 98 68 204 235 257 269 278 281 284 288 323 44 14 336
274 277 287 255 216 220 220 231 239 238 249 257 271 297 313 303 51 64 228 235 40 275 239 110 183 309 47 64 338 350 169 285 53 350 13 94 338 31 146 200 114 134 273 310 264 251 251 351 162 161 190 206 174 117 172 170 174 140 107 58 34 40 38 51 42 80 60 285 238 187 186 193 284 281 143 176 227 218 244 284 295 304 313 306 320 345 20 11
280 281 280 189 188 203 198 241 250 233 232 239 253 290 327 9 68 172 239 235 59 274 117 86 298 35 86 120 306 310 172 256 43 98 103 131 38 30 29 223 90 71 345 322 285 268 118 117 224 240 209 139 111 77 354 94 117 101 86 45 5 338 14 27 356 43 161 269 249 189 186 187 238 262 189 254 260 230 225 266 299 317 325 313 301 329 37 350
277 277 271 216 201 203 204 249 270 205 208 210 224 352 65 19 274 208 243 360 339 270 125 198 270 98 111 111 249 241 172 217 195 146 156 152 149 169 195 197 173 313 310 258 275 312 255 206 234 278 210 147 129 130 338 19 77 93 99 82 336 319 347 351 324 63 216 263 282 217 187 221 245 263 280 271 274 262 227 224 251 274 292 295 300 3 39 314
274 270 260 238 221 215 218 231 238 188 186 180 181 46 82 214 250 184 186 258 237 255 110 146 255 139 133 38 264 225 157 213 195 177 172 142 168 234 243 220 178 217 264 223 305 314 286 267 218 191 247 173 150 175 234 254 151 149 156 159 159 199 272 276 258 262 266 278 311 313 264 276 280 285 243 247 269 287 252 220 237 253 272 284 299 356 20 329
280 272 259 243 230 224 221 225 227 188 172 164 107 64 118 229 245 112 183 236 243 321 286 130 73 26 156 222 243 192 201 253 171 155 179 124 137 248 253 243 199 171 205 234 288 214 252 287 216 179 218 171 174 196 185 139 154 180 162 142 157 177 210 242 227 257 280 289 310 299 199 233 260 276 241 235 265 300 302 278 276 274 266 277 310 9 10 348
286 278 268 250 233 225 216 215 214 183 166 150 105 140 209 233 245 168 217 235 263 299 298 83 56 327 279 242 255 219 221 252 131 122 180 167 185 208 202 219 198 163 152 210 260 170 216 265 244 219 78 157 178 205 139 113 142 200 132 121 201 193 181 230 234 227 253 290 283 239 224 233 232 269 273 267 283 298 308 307 299 293 292 313 357 28 11 359
295 288 275 253 238 226 214 204 194 182 170 141 159 211 229 228 200 197 210 198 184 187 324 322 229 262 275 264 286 294 214 224 195 125 211 205 216 217 212 224 192 177 175 186 226 208 232 264 261 29 354 177 182 181 126 135 193 159 125 177 227 158 144 222 264 232 152 255 251 228 254 274 292 286 288 343 339 337 356 339 305 303 327 349 15 32 15 8
306 294 264 245 241 228 212 198 185 183 176 152 207 222 229 218 194 194 192 136 168 130 105 270 239 206 254 267 279 306 75 233 222 173 226 247 246 207 208 256 205 189 199 198 229 236 248 270 257 147 206 239 191 111 35 343 140 131 171 218 223 86 119 170 264 318 189 245 250 240 259 275 292 283 307 4 330 333 357 345 347 352 354 10 21 26 22 21
312 293 257 247 242 227 208 193 182 179 167 176 228 234 222 222 223 191 171 159 257 46 115 230 256 256 252 255 260 240 186 223 212 158 214 242 243 181 169 245 198 184 242 287 274 280 280 269 277 177 198 234 59 82 344 320 134 141 209 242 109 182 235 186 173 214 236 248 249 222 245 259 252 259 287 316 306 320 344 338 2 11 13 22 20 20 23 23
308 284 279 266 238 217 197 184 175 172 180 204 229 237 222 236 251 216 189 181 56 65 211 236 247 274 272 234 234 266 207 201 182 237 222 225 244 194 147 232 144 55 320 286 193 288 359 256 276 348 175 47 37 107 196 240 327 65 317 318 52 190 225 214 186 192 239 251 258 229 230 243 236 259 292 302 297 330 354 6 21 23 26 29 25 21 19 17
279 208 286 338 258 192 179 173 171 182 206 214 229 233 235 261 262 251 235 228 219 202 230 231 218 242 262 250 247 270 232 199 201 221 226 248 282 308 3 338 127 36 360 52 154 300 24 266 267 270 251 311 276 208 188 190 187 142 221 249 238 203 246 279 239 161 221 252 265 254 241 246 255 279 295 316 10 20 19 32 45 41 34 30 27 25 18 13
305 80 265 3 105 164 163 166 186 199 202 227 242 240 253 272 273 295 305 191 206 260 232 196 206 227 253 281 275 256 208 234 222 217 239 261 268 277 359 28 80 187 37 55 107 211 189 249 253 264 265 254 249 227 189 190 187 180 197 203 212 219 249 280 260 203 198 228 235 254 259 248 232 258 286 359 50 45 29 40 57 50 35 28 25 21 17 16
55 139 211 20 144 162 161 176 203 191 210 224 230 232 250 272 263 267 283 130 171 252 303 207 221 231 240 262 261 232 234 244 223 227 245 242 229 228 301 350 338 153 99 126 230 204 157 162 235 251 250 258 270 266 181 201 210 208 222 203 212 222 217 249 260 249 234 231 223 248 260 252 230 253 354 53 62 52 37 41 47 41 34 32 26 18 16 16
147 191 321 25 166 171 171 204 198 200 232 223 244 256 246 266 263 245 243 222 193 220 248 239 233 233 234 246 245 229 231 225 221 235 239 238 232 238 302 319 343 69 359 270 274 312 111 126 240 257 264 280 290 313 44 54 223 231 259 227 217 236 238 244 256 271 265 247 240 253 254 263 323 330 68 78 77 60 47 43 38 29 24 22 17 20 20 15
2 285 300 337 183 185 191 206 198 213 228 232 253 249 245 245 248 250 247 238 217 180 189 231 243 243 240 249 248 235 232 233 248 249 235 239 249 302 347 342 28 60 342 272 272 317 341 244 248 271 287 293 294 301 353 25 35 239 266 268 259 301 306 300 287 262 249 228 230 252 253 210 288 319 46 66 75 72 57 45 44 36 19 11 7 9 11 9
18 299 276 310 299 223 216 204 184 212 221 232 242 246 252 254 245 234 222 233 223 181 199 257 235 207 254 321 9 276 234 211 255 288 296 272 279 24 6 350 17 81 75 24 28 79 72 274 256 263 263 261 276 283 285 3 332 292 290 313 337 328 299 300 295 267 261 236 224 255 282 268 272 304 359 17 32 60 58 44 46 39 20 13 5 359 359 2
65 336 296 316 342 6 208 92 41 222 215 221 234 240 239 243 260 215 196 227 237 202 214 247 188 139 231 231 231 266 250 207 203 245 256 261 276 326 353 352 22 66 116 51 35 80 139 251 231 242 256 260 274 281 292 354 281 275 296 304 301 292 280 283 277 261 278 287 269 268 279 283 289 305 342 6 3 16 31 31 37 34 14 4 359 351 346 345
119 184 183 283 334 324 212 173 93 248 270 210 227 250 237 234 252 252 206 222 243 207 219 236 197 192 222 217 216 246 252 230 217 236 253 254 267 305 325 64 45 29 54 24 16 69 133 248 234 242 255 262 273 283 307 335 289 280 294 293 286 287 284 275 269 272 289 292 276 277 285 286 291 301 331 16 358 352 360 0 9 17 352 341 345 344 342 338
59 163 191 204 287 216 203 204 101 244 265 282 248 287 269 221 208 222 223 261 293 244 224 229 166 192 241 212 182 223 251 271 281 270 259 275 295 328 350 35 40 29 46 11 353 76 130 263 249 246 264 269 281 292 297 292 281 276 280 282 283 282 276 269 267 271 274 270 272 286 286 280 285 293 351 43 0 329 317 316 317 316 310 314 320 328 338 338
44 50 316 2 55 216 255 315 31 17 272 222 233 258 255 234 238 235 106 359 304 285 227 243 147 77 31 36 166 244 281 289 285 280 221 257 270 278 329 327 302 51 61 33 316 155 164 255 257 260 288 290 287 288 287 287 285 278 271 268 270 271 269 269 269 266 260 259 266 273 272 274 284 122 159 91 357 281 274 286 285 283 293 306 307 304 306 306
46 159 331 42 58 280 334 341 20 4 301 243 238 260 259 244 261 270 77 272 267 267 288 280 248 79 52 65 145 247 261 173 239 257 155 146 243 147 217 230 200 358 12 33 301 286 240 276 309 333 315 291 280 279 281 284 283 280 278 270 262 263 265 267 268 267 263 263 265 265 267 271 232 123 245 283 293 288 293 291 282 270 276 301 306 300 296 289
99 73 120 85 358 209 114 26 54 204 260 231 222 262 298 251 269 304 36 343 303 269 76 92 82 46 35 52 21 253 194 108 184 232 73 216 266 339 329 260 15 343 327 337 295 307 302 309 322 325 294 275 276 281 286 295 296 286 277 267 261 260 259 259 262 265 266 270 275 276 275 271 137 157 268 271 269 295 300 293 291 272 252 273 286 293 302 299
139 349 109 111 25 261 137 108 131 177 222 230 222 258 229 194 340 1 53 34 62 81 84 91 79 52 345 271 295 176 135 135 197 214 201 229 250 259 253 254 260 265 264 253 270 252 217 244 280 276 268 273 280 297 347 354 314 282 263 254 254 255 259 262 262 266 271 262 272 279 273 165 183 215 249 272 268 275 278 280 293 287 268 262 266 278 289 286
Height
835 834 834 833 833 833 832 832 831 831 831 830 830 830 829 829 828 828 827 826 826 825 825 824 823 823 822 822 821 820 819 817 816 816 815 812 810 811 811 811 811 812 813 815 815 816 817 818 818 819 819 820 825 825 825 826 827 828 834 842 842 844 842 833 830 830 824 819 815 815 818 820 816 815 814 813 814 812 811 807 805 803 799 797 796 796 796 796
834 834 833 833 832 832 832 831 831 831 830 830 830 829 828 828 827 827 826 826 825 824 824 823 823 822 822 821 820 819 818 816 815 814 811 810 810 810 810 810 811 811 812 814 814 815 816 818 818 819 820 823 827 826 826 827 827 830 839 843 838 834 830 824 821 821 821 817 814 814 817 820 815 813 813 812 811 811 810 803 802 802 796 795 795 795 795 795
834 834 833 832 832 832 831 831 830 830 830 829 829 828 828 827 826 826 825 825 824 823 823 822 822 821 821 820 819 819 817 815 814 811 809 809 809 809 809 809 810 811 812 813 814 814 815 816 817 819 821 824 828 828 827 827 828 831 838 840 831 824 823 823 821 818 817 815 814 814 816 818 814 813 813 811 811 810 808 800 799 799 793 791 792 793 793 794
834 833 833 832 831 831 830 830 830 829 829 828 828 827 827 826 826 825 824 824 823 823 822 821 821 820 820 819 819 818 815 815 813 808 808 808 808 808 808 808 809 810 811 812 813 814 815 816 817 819 822 825 830 830 827 826 828 832 834 829 823 823 822 818 816 814 817 819 817 814 816 814 810 813 811 810 812 809 801 795 794 792 788 787 788 790 791 792
834 833 832 832 831 831 830 829 829 828 828 827 827 826 826 825 825 824 824 823 822 822 821 820 820 819 819 818 819 816 816 822 814 805 807 807 807 808 807 808 809 810 811 812 812 814 814 816 817 820 823 825 829 829 827 826 828 830 827 820 819 825 820 811 812 814 817 819 818 817 815 810 809 811 808 808 812 803 790 787 787 784 783 784 785 787 789 790
833 833 832 831 831 830 829 829 828 828 827 827 826 825 825 824 824 823 823 822 822 821 820 819 818 818 818 817 818 815 820 825 812 805 808 806 807 807 807 807 808 809 810 811 812 813 814 817 818 821 824 826 828 826 825 828 828 826 822 819 818 821 817 809 811 813 815 817 815 814 811 809 810 806 802 805 803 790 782 781 781 779 781 782 783 785 786 787
833 833 832 831 831 830 829 829 828 827 827 826 826 825 824 823 823 822 821 821 820 820 819 818 818 817 817 817 817 816 820 818 806 805 807 806 807 807 807 807 808 809 810 810 811 813 815 817 819 822 825 825 827 825 825 827 829 827 822 819 817 818 816 810 811 813 814 813 810 812 812 807 806 805 801 799 793 784 779 777 777 778 779 781 781 781 781 781
833 832 832 831 830 829 829 828 828 827 826 826 825 824 824 822 822 821 820 819 818 819 818 817 817 816 816 816 816 818 819 811 803 805 805 805 806 806 807 807 807 808 809 809 810 812 815 817 818 822 823 823 824 824 826 826 828 828 822 817 816 817 813 810 813 814 814 812 810 814 811 802 800 805 800 790 787 783 777 774 775 778 778 779 778 776 777 777
832 832 831 831 830 829 828 828 827 827 826 825 824 823 823 821 821 820 819 818 817 817 816 816 816 816 816 815 817 819 813 804 802 803 802 803 804 804 805 805 806 807 808 809 810 811 813 816 817 818 818 820 823 823 825 825 823 821 817 816 816 814 811 811 811 811 812 810 810 813 808 800 798 804 793 777 779 778 775 774 775 778 776 775 775 772 773 773
832 831 831 830 829 829 828 827 827 826 825 825 824 822 821 820 819 818 817 817 816 816 815 815 815 816 816 814 818 817 805 800 802 801 801 802 802 803 803 804 805 805 807 808 809 810 810 812 813 815 816 820 823 823 825 823 819 817 818 817 814 814 812 811 809 807 811 807 806 809 804 798 799 806 790 767 771 775 774 775 773 776 774 770 771 769 769 770
832 831 831 830 829 828 827 827 826 825 825 823 823 821 820 819 818 817 816 815 815 814 814 814 814 815 814 814 818 812 800 800 801 800 801 801 801 802 802 803 803 804 805 806 808 807 808 809 811 814 817 819 822 824 824 819 818 819 819 817 813 813 810 809 809 807 809 804 800 804 804 800 801 805 785 763 770 774 772 772 770 773 770 766 768 766 767 767
831 831 830 829 829 828 827 826 825 825 824 823 822 820 819 818 816 815 814 813 812 812 812 812 813 813 813 814 811 803 799 800 801 801 801 800 801 801 801 803 803 804 804 805 807 806 808 809 809 812 815 818 821 823 820 817 820 819 820 819 813 813 807 799 801 802 804 801 797 802 806 802 798 791 772 762 770 772 772 771 767 768 765 764 764 764 764 762
831 830 829 829 828 827 827 826 825 824 823 822 820 819 818 815 814 813 811 811 810 810 810 810 811 812 814 812 802 797 798 799 799 800 800 799 800 800 801 802 802 804 804 805 806 806 808 809 809 812 814 816 819 819 817 818 822 818 820 821 817 818 808 793 796 801 802 800 795 798 803 796 786 777 765 764 770 770 772 770 766 764 761 761 761 762 761 758
830 829 829 828 828 827 826 825 824 823 822 821 819 817 816 813 812 810 809 809 808 808 808 809 810 811 814 807 797 796 797 797 798 798 798 799 799 800 800 801 802 803 804 805 806 806 807 808 810 813 814 816 816 816 818 821 821 819 821 823 824 824 807 791 798 804 800 797 796 797 801 793 779 771 764 764 769 769 769 767 764 761 758 758 758 760 758 754
830 829 828 828 827 826 826 825 823 822 821 819 817 816 813 812 810 809 808 807 806 807 807 809 809 810 813 805 795 796 796 795 796 796 796 797 798 799 800 801 802 802 803 804 805 806 807 809 811 813 816 815 815 817 821 822 820 820 822 821 824 826 810 795 795 797 793 794 799 798 797 792 781 771 763 766 771 771 769 766 762 759 756 756 755 756 755 750
829 829 828 827 826 826 825 824 823 821 819 818 816 814 812 811 810 808 807 806 806 807 807 809 809 810 813 805 795 795 795 794 795 795 795 796 797 798 800 800 801 802 803 804 805 806 807 809 813 816 816 815 817 820 823 827 825 824 825 820 819 820 815 806 792 786 789 792 796 796 790 785 778 768 764 767 770 771 770 766 761 757 755 754 752 751 750 746
828 828 827 827 826 825 824 823 822 820 818 817 815 813 811 810 809 808 807 807 807 807 808 809 809 811 808 800 796 795 794 794 793 794 794 794 796 797 799 801 802 803 803 805 805 807 808 811 816 818 817 818 820 822 827 833 827 822 825 823 821 819 816 812 795 783 788 791 791 794 793 785 774 768 768 767 766 768 767 763 758 754 752 750 748 746 744 742
828 828 827 826 825 824 824 822 822 819 818 816 814 812 811 810 809 809 808 808 808 808 810 809 810 814 807 796 796 795 793 794 793 793 793 794 796 797 798 800 802 803 804 807 807 808 811 815 818 818 818 821 822 824 827 825 815 812 816 818 818 818 817 815 802 787 786 789 791 796 794 784 777 773 771 767 766 767 762 756 753 749 748 745 742 740 738 738
828 827 826 826 825 824 823 822 821 819 818 815 814 812 810 810 809 809 809 809 810 810 810 810 809 811 805 796 795 793 792 794 793 792 793 794 795 797 798 799 801 803 806 809 809 810 812 816 820 821 820 817 815 818 816 807 805 809 813 814 814 814 812 809 801 791 790 792 793 793 784 776 776 773 768 764 764 765 760 753 749 745 742 738 735 735 734 734
827 826 826 825 825 824 823 822 821 819 817 815 813 811 812 814 812 811 810 809 809 809 808 807 805 804 800 795 792 792 793 793 792 793 793 794 795 796 798 800 803 805 806 808 810 812 813 816 819 817 811 807 806 810 809 805 810 816 816 815 815 815 809 801 796 791 794 795 788 783 775 771 772 768 766 763 760 762 758 752 746 742 737 732 731 730 728 728
826 826 825 824 824 823 822 822 821 819 818 816 813 812 817 821 819 817 815 810 805 805 805 801 799 798 794 791 791 792 793 792 792 793 794 794 795 797 798 802 805 807 809 810 811 814 815 817 817 808 801 802 805 808 809 811 813 814 816 817 817 817 807 797 794 790 793 796 788 782 776 772 771 766 762 761 758 753 748 748 746 740 734 729 726 724 722 724
825 825 824 824 823 823 822 821 821 819 819 817 815 816 820 821 820 820 820 815 805 801 801 796 796 796 790 790 793 793 795 795 793 793 795 795 796 797 799 803 806 808 812 812 811 814 817 818 814 803 801 806 809 810 811 812 813 813 818 820 817 815 805 795 794 791 796 797 787 784 779 769 768 762 754 750 749 746 742 745 744 737 733 726 720 720 722 724
824 824 824 823 823 823 822 821 821 820 819 818 817 818 820 819 819 819 820 819 809 798 795 794 796 796 792 791 792 793 798 799 796 794 794 795 798 800 800 803 807 809 811 810 807 810 813 812 806 803 806 810 810 811 812 811 812 812 815 817 813 810 805 798 792 790 796 796 788 789 779 762 758 752 745 743 744 744 741 740 739 735 729 721 717 722 726 726
822 822 823 822 822 822 821 822 821 820 819 819 819 819 818 818 818 819 819 817 811 799 792 793 794 793 791 790 789 791 796 797 795 793 792 793 797 800 800 802 807 811 810 807 805 804 803 802 802 803 807 809 810 812 813 812 810 807 811 813 806 802 802 799 794 793 796 793 791 791 769 747 747 745 740 743 745 743 741 738 732 726 722 721 720 723 727 728
820 821 821 821 822 821 821 821 820 820 820 819 819 818 817 818 816 818 818 816 811 799 791 791 792 791 789 789 789 790 792 793 793 792 792 792 794 798 801 802 805 807 806 807 808 806 802 801 802 803 806 810 812 812 811 811 807 805 806 804 797 795 798 798 798 803 802 793 794 796 773 747 744 745 740 739 740 736 736 734 719 713 721 725 722 721 726 730
819 819 819 820 820 821 821 820 820 820 819 819 819 817 818 817 816 817 818 818 809 793 788 791 791 789 787 788 790 790 791 793 792 792 792 793 793 794 799 803 803 804 805 807 810 808 804 802 801 802 806 810 814 812 807 806 809 807 800 794 793 797 800 800 802 806 802 795 798 800 790 769 749 741 740 737 737 733 729 724 713 714 724 723 720 723 729 730
817 817 818 819 819 820 820 819 820 819 819 819 817 818 818 816 818 816 815 820 809 789 786 791 789 787 787 789 790 788 791 792 792 793 792 793 793 793 797 801 803 803 804 807 807 803 800 801 804 805 806 809 812 807 800 804 808 804 798 793 792 796 798 801 804 806 803 800 801 798 796 790 762 743 743 741 740 736 727 721 718 720 724 721 722 726 729 728
816 816 816 817 817 818 818 818 818 818 818 818 817 818 817 816 818 814 819 827 807 783 785 789 787 787 787 789 789 789 793 793 791 793 793 794 793 794 796 798 798 798 800 803 803 799 796 796 799 802 805 808 803 796 795 802 802 798 802 802 798 799 801 804 802 804 809 805 802 798 795 793 767 743 748 749 742 736 727 723 722 719 721 722 724 727 729 727
815 815 815 816 816 816 817 817 817 817 817 817 818 818 816 817 815 814 828 830 799 779 785 786 786 788 788 790 791 791 793 792 792 793 793 794 794 795 798 797 797 796 798 800 797 795 796 796 798 797 798 796 790 791 794 795 795 798 807 806 804 806 806 809 805 802 809 802 795 796 792 785 759 734 745 752 742 732 724 724 724 720 721 722 722 727 729 725
814 814 814 815 815 816 816 816 816 816 816 816 818 817 816 816 816 824 835 822 796 787 787 784 787 791 791 790 791 793 792 792 794 794 794 796 794 795 798 799 799 798 799 801 797 795 796 801 802 795 790 787 787 798 802 798 798 803 804 798 801 806 806 812 810 805 808 796 784 785 782 782 765 739 740 744 736 731 725 722 722 717 717 718 720 727 728 726
813 813 813 813 815 815 815 816 815 815 816 816 817 817 817 816 821 832 828 806 795 792 785 786 792 792 790 791 790 791 792 791 794 793 793 796 796 796 798 797 798 799 800 800 796 796 797 800 798 789 787 790 789 797 805 807 805 802 800 797 798 802 804 809 810 809 809 791 778 779 780 782 766 742 739 739 735 735 732 728 722 716 716 715 718 726 730 731
813 813 812 813 813 814 815 815 814 815 815 816 817 816 818 823 825 823 812 797 795 790 783 789 793 790 791 793 789 789 791 791 791 792 791 795 797 796 796 793 792 796 798 795 791 791 790 790 791 786 787 790 787 792 801 806 806 803 802 803 805 808 807 807 809 813 808 790 783 789 789 782 758 736 737 734 728 729 731 732 726 720 720 715 716 726 733 733
811 811 812 812 812 813 814 814 814 816 815 816 817 815 822 831 822 809 803 797 792 788 784 788 791 791 793 792 788 789 792 789 788 791 790 794 798 795 793 793 791 791 794 795 793 789 784 784 788 786 782 783 784 787 790 792 801 805 800 801 807 810 811 808 807 811 803 788 790 798 793 780 755 734 732 727 720 723 727 730 729 727 726 721 721 731 734 731
810 810 810 810 811 811 812 813 814 815 815 816 817 819 827 827 811 802 801 794 788 787 785 788 791 792 792 790 788 787 789 786 785 790 791 795 798 793 789 792 794 791 791 795 795 792 790 783 778 775 772 775 778 776 775 780 795 800 792 793 798 796 798 799 796 796 791 783 791 799 789 772 752 734 729 727 724 726 729 733 735 732 731 728 729 736 735 731
808 808 809 808 809 809 810 812 813 814 815 815 818 824 824 814 802 800 798 791 789 787 785 787 789 790 790 790 789 787 785 785 787 791 791 792 791 786 781 782 788 790 791 794 792 792 794 780 769 772 773 773 774 772 772 776 787 795 792 792 791 783 782 788 786 782 785 789 791 790 778 761 744 731 726 729 729 729 732 733 731 729 729 731 733 738 738 736
806 806 807 806 806 807 808 810 812 813 814 816 821 821 811 800 796 796 792 788 788 787 787 789 789 790 791 787 788 789 786 787 790 790 789 791 788 784 781 777 780 783 783 786 783 782 788 777 768 777 779 775 775 774 775 774 777 789 794 788 783 779 776 781 784 780 788 795 782 770 767 757 744 732 723 724 724 726 730 729 729 730 728 727 734 741 744 744
804 804 804 803 803 804 806 808 810 812 813 816 818 810 799 794 790 789 789 788 788 787 790 794 790 788 790 787 787 789 788 788 790 789 789 790 785 780 779 775 777 778 773 775 776 774 778 773 766 772 772 776 785 781 776 777 777 783 787 780 777 781 779 782 790 789 793 794 776 763 761 756 753 741 724 722 724 724 728 727 729 731 727 729 739 747 749 749
803 804 802 800 800 801 803 806 808 810 813 813 809 801 795 792 787 786 787 788 788 788 792 797 792 786 788 789 786 787 788 789 791 790 788 787 780 774 774 772 775 780 775 775 777 776 778 776 769 771 771 774 784 781 776 779 780 778 778 776 777 783 781 781 790 792 790 787 776 765 759 755 754 741 726 728 729 727 731 731 731 735 738 745 751 752 754 756
804 804 801 797 797 798 801 804 806 810 812 808 804 799 794 790 787 787 787 787 788 791 794 795 792 789 789 789 788 788 789 790 791 791 788 785 779 772 771 771 773 781 780 778 780 779 781 782 776 773 775 775 777 777 776 776 779 781 780 779 779 781 781 780 784 785 781 778 772 764 758 751 742 731 729 733 730 730 736 739 743 751 757 762 764 763 765 764
804 802 798 796 796 796 799 804 806 807 806 801 798 796 792 790 789 787 787 788 788 790 793 792 792 793 789 788 789 789 791 791 789 791 788 783 779 773 774 775 773 780 783 780 782 783 783 787 785 776 775 777 774 771 771 770 773 779 780 780 780 780 781 783 782 780 779 779 776 770 764 751 736 728 728 731 735 744 750 750 759 769 771 771 772 772 772 770
803 800 797 795 795 796 799 803 803 802 801 799 797 795 793 791 789 787 789 789 788 789 792 792 791 792 791 791 791 790 792 791 788 790 788 783 782 780 781 783 778 778 782 780 782 785 785 787 788 781 776 776 769 763 764 764 765 770 772 773 773 774 780 785 780 775 779 780 773 768 762 748 735 728 727 736 752 765 766 764 770 777 777 775 775 774 773 773
801 799 796 796 796 796 798 800 799 798 799 797 795 794 793 791 789 789 789 790 791 791 791 792 791 792 792 792 791 791 792 791 789 790 788 784 781 779 784 789 785 780 782 782 783 786 788 789 789 783 776 770 764 762 765 765 762 765 768 766 766 768 773 778 773 767 771 769 762 762 759 744 731 727 736 754 766 772 773 772 775 778 778 777 777 776 775 773
801 799 796 796 797 797 799 800 798 798 796 792 791 792 792 792 792 790 789 791 792 792 792 792 791 792 791 789 790 790 791 792 788 785 784 782 781 786 791 790 785 783 783 783 784 786 789 790 788 782 774 766 763 763 768 770 767 769 771 767 768 768 767 770 771 771 772 765 759 762 758 746 738 736 749 767 772 772 774 776 776 777 777 777 777 776 775 773
803 802 798 796 797 797 798 798 796 796 795 792 793 793 791 792 791 791 792 792 790 791 793 792 790 790 790 789 791 791 792 793 788 784 785 784 785 795 798 790 786 788 790 788 786 789 791 787 785 787 783 776 771 766 768 773 773 774 774 771 772 772 771 773 773 775 776 765 760 763 756 747 746 743 748 763 770 773 777 777 778 778 777 776 775 774 774 772
804 802 800 797 796 797 797 795 794 796 795 795 796 795 794 793 789 788 792 792 790 790 792 792 791 791 792 794 795 795 794 795 794 792 792 790 790 796 798 795 791 791 794 795 792 793 795 791 787 790 789 785 780 775 774 780 783 781 778 776 777 777 778 778 776 777 772 759 758 764 756 746 744 741 744 755 764 772 778 778 778 778 778 778 776 775 773 771
804 799 798 798 797 798 798 797 797 796 795 796 796 794 794 794 788 787 789 790 789 789 789 790 792 794 795 796 797 795 792 793 796 795 792 790 791 795 800 800 796 795 797 797 796 796 797 796 792 789 788 785 782 779 780 787 791 787 782 781 780 779 779 781 782 779 772 764 763 761 753 750 747 743 751 762 768 775 780 780 780 780 780 779 778 777 776 774
803 799 798 798 797 797 798 799 800 798 797 798 795 791 791 791 789 788 787 787 789 789 789 790 791 793 794 794 796 794 790 792 795 795 794 792 791 796 801 800 799 799 799 798 798 798 798 797 791 787 788 785 782 782 785 791 793 789 786 783 781 779 778 780 781 775 770 771 766 753 752 758 753 749 761 773 778 782 782 780 781 781 781 780 778 777 776 774
803 801 800 800 799 798 797 799 801 801 800 801 799 795 792 791 789 788 788 788 790 789 790 792 792 794 795 795 796 795 792 794 796 795 795 796 796 797 797 800 804 803 801 801 800 798 802 801 791 789 792 787 785 788 789 791 792 788 787 784 780 778 777 777 776 771 770 772 763 754 755 755 752 760 776 783 782 783 782 780 780 780 780 779 778 777 775 773
804 804 804 803 804 804 803 803 804 804 802 802 802 798 794 793 791 789 789 791 792 790 789 791 794 799 800 798 798 796 795 796 797 797 798 801 803 802 798 799 804 805 804 805 801 799 806 804 793 793 797 793 791 790 787 789 790 786 785 783 779 776 773 773 771 767 767 766 759 757 756 752 760 777 784 782 782 782 780 779 779 778 778 777 777 776 775 773
804 805 805 806 808 809 808 806 805 806 805 804 802 798 795 795 794 792 791 793 794 792 790 793 798 803 805 803 800 799 799 801 802 802 805 807 805 806 806 802 802 806 806 805 803 801 804 802 793 795 803 799 791 788 785 786 786 784 783 780 776 774 772 772 769 764 764 761 756 756 754 755 774 787 783 780 782 780 779 778 777 776 776 776 775 774 772 771
805 805 806 808 808 807 809 811 809 810 808 805 803 800 797 798 799 799 797 798 798 796 796 801 805 807 808 807 806 805 805 808 809 808 811 812 807 808 811 806 806 810 807 804 804 802 803 804 797 801 810 802 790 791 791 789 789 790 786 778 772 771 769 766 761 758 758 757 756 756 756 762 778 786 783 781 781 779 779 777 775 774 775 774 774 771 769 769
805 805 805 807 808 807 809 813 812 810 807 804 803 801 801 804 805 803 801 802 805 805 805 807 808 808 809 808 808 808 809 810 811 810 811 812 810 809 810 808 807 810 807 806 806 803 804 807 804 807 811 801 794 798 798 797 800 794 779 769 764 763 763 760 756 756 760 764 763 761 764 774 782 784 782 781 779 779 779 776 773 773 773 772 771 769 767 767